Погода в Таласе

Киргизия     42˚31′16″N   72˚15′01″E
темп.,
°C
ветер,
м/с
пор.,
м/с
влажн.,
%
обл.,
%
осадки,
мм/ч
давл.,
гПа
погр.,
м
6 декабря, вс
вс600:00−10˚вюв22550 0.0 103424
03:00−10˚юв22510 0.0 103426
06:00−10˚юв22490 0.0 103424
09:00−10˚юв12520 0.0 103526
12:00−4˚в01609 0.0 1033203
15:00−3˚зсз22704 0.0 1032155
18:00−8˚юв01692 0.0 103221
21:00−8˚вюв12620 0.0 103121
7 декабря, пн
пн700:00−7˚юв125819 0.0 103022
03:00−8˚юв125972 0.0 102921
06:00−9˚юв016036 0.0 102821
09:00−8˚вюв01570 0.0 102821
12:00−5˚зсз22694 0.0 1028121
15:00−6˚зсз227928 0.0 1029152
18:00−11˚з119033 0.0 103121
21:00−11˚ссв118032 0.1 103321
8 декабря, вт
вт800:00−11˚зсз017223 0.1 103321
03:00−12˚сз016921 0.0 103421
06:00−12˚з116921 0.0 103421
09:00−12˚зсз01680 0.0 103521
12:00−8˚сз21730 0.0 1034126
15:00−8˚з23870 0.0 1034173
18:00−12˚в128817 0.0 103621
21:00−11˚в11640 0.0 103721
9 декабря, ср
ср900:00−10˚в12550 0.0 103721
03:00−10˚вюв22480 0.0 103821
06:00−9˚вюв22460 0.0 103721
09:00−9˚вюв23430 0.0 103722
12:00−2˚всв11580 0.0 1035103
15:00−2˚зсз22720 0.0 103380
18:00−7˚в11630 0.0 103321
21:00−7˚вюв12430 0.0 103321
10 декабря, чт
чт1000:00−7˚вюв22370 0.0 103221
03:00−7˚вюв23320 0.0 103221
06:00−7˚вюв23320 0.0 103221
09:00−6˚вюв23330 0.0 103321
12:00св11540 0.0 1032120
15:00−1˚з11680 0.0 103194
18:00−5˚всв11580 0.0 103321
21:00−6˚в11560 0.0 103421